User: anonymous   Login
Location: Unspecified
(0.0000°N, 0.0000°E)
Time: 09:28:18
(UTC+02:00)
Language:

Cosmos 1892 Rocket - Orbit

View from above orbital plane
View from above orbital plane
View from above satellite
View from above satellite

Ground track
Ground track

The orbit data is extracted from the following two-line orbital elements,

1 18422U 87088B   15238.95023606 +.00000171 +00000-0 +18102-4 0  9993
2 18422 082.5090 075.4787 0021244 093.4269 020.0607 14.82756957482886
Epoch (UTC): 26 August 2015 22:48:20
Eccentricity: 0.0021244
inclination: 82.5090°
perigee height: 606 km
apogee height: 635 km
right ascension of ascending node: 75.4787°
argument of perigee: 93.4269°
revolutions per day: 14.82756957
mean anomaly at epoch: 20.0607°
orbit number at epoch: 48288

The dashed part of the orbit path shows where the satellite is in the earth's shadow,  

DLR